Emporia, Virginia, United States (23847)
Lat: 36.69N, Lon: 77.54W
Wx Zone: VAZ087
Local Info
Past Weather Observations for Monday, April 14, 2014

NOTE: This archive is for the closest National Weather Service station to Emporia. Information may differ from the station used for current weather conditions.

Time Weather Temperature Dewpoint Humidity Pressure Winds Precip Visibility
23:55
Mostly Cloudy
68°F / 20°C 63°F / 17°C 83% 29.86 in
(1011 mb)
SE 6.9 mph
(SE 11 kph)
- 10SM
23:35
Mostly Cloudy
68°F / 20°C 61°F / 16°C 78% 29.89 in
(1012 mb)
SE 8.1 mph
(SE 13 kph)
- 10SM
23:15
Partly Cloudy
68°F / 20°C 61°F / 16°C 78% 29.89 in
(1012 mb)
SSE 9.2 mph
(SSE 15 kph)
- 10SM
22:55
Mostly Cloudy
68°F / 20°C 61°F / 16°C 78% 29.89 in
(1012 mb)
SSE 9.2 mph
(SSE 15 kph)
- 10SM
22:35
Partly Cloudy
68°F / 20°C 61°F / 16°C 78% 29.89 in
(1012 mb)
SSE 9.2 mph
(SSE 15 kph)
- 10SM
22:15
Overcast
68°F / 20°C 61°F / 16°C 78% 29.89 in
(1012 mb)
SE 15 mph
(SE 24 kph)
- 10SM
21:55
Mostly Cloudy
70°F / 21°C 59°F / 15°C 69% 29.89 in
(1012 mb)
SE 8.1 mph
(SE 13 kph)
- 10SM
21:35
Partly Cloudy
68°F / 20°C 57°F / 14°C 69% 29.89 in
(1012 mb)
ESE 9.2 mph
(ESE 15 kph)
- 10SM
21:15
Overcast
70°F / 21°C 55°F / 13°C 60% 29.92 in
(1013 mb)
SE 8.1 mph
(SE 13 kph)
- 10SM
20:55
Overcast
70°F / 21°C 55°F / 13°C 60% 29.92 in
(1013 mb)
SE 9.2 mph
(SE 15 kph)
- 10SM
20:35
Mostly Cloudy
70°F / 21°C 55°F / 13°C 60% 29.92 in
(1013 mb)
SE 6.9 mph
(SE 11 kph)
- 10SM
20:15
Mostly Cloudy
70°F / 21°C 55°F / 13°C 60% 29.92 in
(1013 mb)
SE 8.1 mph
(SE 13 kph)
- 10SM
19:55
Overcast
72°F / 22°C 55°F / 13°C 57% 29.92 in
(1013 mb)
SE 6.9 mph
(SE 11 kph)
- 10SM
19:35
Overcast
72°F / 22°C 57°F / 14°C 61% 29.92 in
(1013 mb)
SSE 6.9 mph
(SSE 11 kph)
- 10SM
19:15
Overcast
72°F / 22°C 57°F / 14°C 61% 29.92 in
(1013 mb)
SSE 6.9 mph
(SSE 11 kph)
- 10SM
18:55
Overcast
72°F / 22°C 57°F / 14°C 61% 29.92 in
(1013 mb)
SE 8.1 mph
(SE 13 kph)
- 10SM
18:35
Overcast
72°F / 22°C 59°F / 15°C 65% 29.92 in
(1013 mb)
SE 8.1 mph
(SE 13 kph)
- 10SM
18:15
Overcast
72°F / 22°C 59°F / 15°C 65% 29.92 in
(1013 mb)
SE 8.1 mph
(SE 13 kph)
- 10SM
17:55
Mostly Cloudy
72°F / 22°C 59°F / 15°C 65% 29.92 in
(1013 mb)
SE 5.8 mph
(SE 9 kph)
- 10SM
17:35
Mostly Cloudy
72°F / 22°C 61°F / 16°C 69% 29.92 in
(1013 mb)
SE 4.6 mph
(SE 7 kph)
- 10SM
17:15
Partly Cloudy
73°F / 23°C 59°F / 15°C 61% 29.95 in
(1014 mb)
SSE 5.8 mph
(SSE 9 kph)
- 10SM
16:55
Overcast
Light Rain
72°F / 22°C 59°F / 15°C 65% 29.95 in
(1014 mb)
S 5.8 mph
(S 9 kph)
- 10SM
16:35
Overcast
73°F / 23°C 57°F / 14°C 57% 29.95 in
(1014 mb)
SSE 8.1 mph
(SSE 13 kph)
- 10SM
16:15
Overcast
75°F / 24°C 55°F / 13°C 50% 29.95 in
(1014 mb)
SSE 9.2 mph
(SSE 15 kph)
- 10SM
15:55
Mostly Cloudy
75°F / 24°C 55°F / 13°C 50% 29.95 in
(1014 mb)
S 9.2 mph
(S 15 kph)
- 10SM
15:35
Partly Cloudy
77°F / 25°C 55°F / 13°C 47% 29.95 in
(1014 mb)
S 8.1 mph
(S 13 kph)
- 10SM
15:15
Mostly Cloudy
75°F / 24°C 55°F / 13°C 50% 29.98 in
(1015 mb)
S 11.5 mph
(S 19 kph)
- 10SM
14:55
Mostly Cloudy
75°F / 24°C 55°F / 13°C 50% 29.98 in
(1015 mb)
S 10.4 mph
(S 17 kph)
- 10SM
14:35
Partly Cloudy
77°F / 25°C 55°F / 13°C 47% 29.98 in
(1015 mb)
SSE 9.2 mph
(SSE 15 kph)
- 10SM
14:15
Mostly Cloudy
79°F / 26°C 55°F / 13°C 45% 29.98 in
(1015 mb)
S 9.2 mph
(S 15 kph)
- 10SM
13:55
Partly Cloudy
77°F / 25°C 55°F / 13°C 47% 30.01 in
(1016 mb)
SSE 8.1 mph
(SSE 13 kph)
- 10SM
13:35
Mostly Cloudy
75°F / 24°C 55°F / 13°C 50% 30.01 in
(1016 mb)
SSE 10.4 mph
(SSE 17 kph)
- 10SM
13:15
Mostly Cloudy
75°F / 24°C 55°F / 13°C 50% 30.01 in
(1016 mb)
S 9.2 mph
(S 15 kph)
- 10SM
12:55
Partly Cloudy
77°F / 25°C 55°F / 13°C 47% 30.04 in
(1017 mb)
S 10.4 mph
(S 17 kph)
- 10SM
12:35
Mostly Cloudy
75°F / 24°C 55°F / 13°C 50% 30.04 in
(1017 mb)
SSE 9.2 mph
(SSE 15 kph)
- 10SM
12:15
Mostly Cloudy
73°F / 23°C 54°F / 12°C 50% 30.04 in
(1017 mb)
SSE 8.1 mph
(SSE 13 kph)
- 10SM
11:55
Mostly Cloudy
75°F / 24°C 54°F / 12°C 47% 30.04 in
(1017 mb)
S 12.7 mph
(S 20 kph)
- 10SM
11:35
Partly Cloudy
73°F / 23°C 55°F / 13°C 53% 30.06 in
(1018 mb)
SE 11.5 mph
(SE 19 kph)
- 10SM
11:15
Clear
72°F / 22°C 54°F / 12°C 53% 30.06 in
(1018 mb)
SSE 13.8 mph
(SSE 22 kph)
- 10SM
10:55
Clear
72°F / 22°C 54°F / 12°C 53% 30.06 in
(1018 mb)
SSE 6.9 mph
(SSE 11 kph)
- 10SM
10:35
Clear
72°F / 22°C 54°F / 12°C 53% 30.09 in
(1019 mb)
SSE 8.1 mph
(SSE 13 kph)
- 10SM
10:15
Clear
70°F / 21°C 54°F / 12°C 57% 30.09 in
(1019 mb)
SE 9.2 mph
(SE 15 kph)
- 10SM
09:55
Clear
70°F / 21°C 54°F / 12°C 57% 30.09 in
(1019 mb)
SE 13.8 mph
(SE 22 kph)
- 10SM
09:35
Clear
70°F / 21°C 54°F / 12°C 57% 30.09 in
(1019 mb)
SSE 10.4 mph
(SSE 17 kph)
- 10SM
09:15
Clear
70°F / 21°C 55°F / 13°C 60% 30.09 in
(1019 mb)
SSE 8.1 mph
(SSE 13 kph)
- 10SM
08:55
Clear
68°F / 20°C 55°F / 13°C 64% 30.09 in
(1019 mb)
SSE 10.4 mph
(SSE 17 kph)
- 10SM
08:35
Clear
68°F / 20°C 55°F / 13°C 64% 30.09 in
(1019 mb)
SE 9.2 mph
(SE 15 kph)
- 10SM
08:15
Clear
68°F / 20°C 55°F / 13°C 64% 30.09 in
(1019 mb)
SSE 8.1 mph
(SSE 13 kph)
- 10SM
07:55
Clear
64°F / 18°C 55°F / 13°C 73% 30.09 in
(1019 mb)
SSE 8.1 mph
(SSE 13 kph)
- 10SM
07:35
Partly Cloudy
63°F / 17°C 55°F / 13°C 77% 30.09 in
(1019 mb)
SSE 8.1 mph
(SSE 13 kph)
- 10SM
07:15
Partly Cloudy
61°F / 16°C 55°F / 13°C 83% 30.09 in
(1019 mb)
SSE 5.8 mph
(SSE 9 kph)
- 10SM
06:55
Mostly Cloudy
61°F / 16°C 55°F / 13°C 83% 30.09 in
(1019 mb)
SSE 4.6 mph
(SSE 7 kph)
- 10SM
06:35
Overcast
59°F / 15°C 55°F / 13°C 88% 30.12 in
(1020 mb)
SSE 4.6 mph
(SSE 7 kph)
- 10SM
06:15
Overcast
59°F / 15°C 55°F / 13°C 88% 30.09 in
(1019 mb)
SE 5.8 mph
(SE 9 kph)
- 10SM
05:55
Overcast
59°F / 15°C 55°F / 13°C 88% 30.09 in
(1019 mb)
SE 4.6 mph
(SE 7 kph)
- 10SM
05:35
Mostly Cloudy
57°F / 14°C 55°F / 13°C 94% 30.09 in
(1019 mb)
SE 5.8 mph
(SE 9 kph)
- 10SM
05:15
Clear
57°F / 14°C 55°F / 13°C 94% 30.09 in
(1019 mb)
SE 5.8 mph
(SE 9 kph)
- 10SM
04:55
Clear
57°F / 14°C 55°F / 13°C 94% 30.09 in
(1019 mb)
SE 4.6 mph
(SE 7 kph)
- 10SM
04:35
Partly Cloudy
59°F / 15°C 55°F / 13°C 88% 30.09 in
(1019 mb)
SE 5.8 mph
(SE 9 kph)
- 10SM
04:15
Clear
59°F / 15°C 55°F / 13°C 88% 30.09 in
(1019 mb)
SE 4.6 mph
(SE 7 kph)
- 10SM
03:55
Partly Cloudy
59°F / 15°C 55°F / 13°C 88% 30.09 in
(1019 mb)
SE 5.8 mph
(SE 9 kph)
- 10SM
03:35
Partly Cloudy
59°F / 15°C 55°F / 13°C 88% 30.09 in
(1019 mb)
SE 5.8 mph
(SE 9 kph)
- 10SM
03:15
Partly Cloudy
59°F / 15°C 55°F / 13°C 88% 30.09 in
(1019 mb)
SE 4.6 mph
(SE 7 kph)
- 10SM
02:55
Partly Cloudy
59°F / 15°C 55°F / 13°C 88% 30.09 in
(1019 mb)
SE 4.6 mph
(SE 7 kph)
- 10SM
02:35
Clear
59°F / 15°C 54°F / 12°C 82% 30.09 in
(1019 mb)
SSE 5.8 mph
(SSE 9 kph)
- 10SM
02:15
Clear
61°F / 16°C 54°F / 12°C 77% 30.09 in
(1019 mb)
SE 5.8 mph
(SE 9 kph)
- 10SM
01:55
Clear
61°F / 16°C 54°F / 12°C 77% 30.09 in
(1019 mb)
SE 5.8 mph
(SE 9 kph)
- 10SM
01:35
Clear
61°F / 16°C 54°F / 12°C 77% 30.12 in
(1020 mb)
SE 5.8 mph
(SE 9 kph)
- 10SM
01:15
Clear
63°F / 17°C 54°F / 12°C 73% 30.12 in
(1020 mb)
SE 6.9 mph
(SE 11 kph)
- 10SM
01:03
Clear
63°F / 17°C 55°F / 13°C 77% 30.12 in
(1020 mb)
SE 6.9 mph
(SE 11 kph)
- 10SM
00:55
Clear
63°F / 17°C 54°F / 12°C 73% 30.12 in
(1020 mb)
SE 6.9 mph
(SE 11 kph)
- 10SM
00:35
Clear
63°F / 17°C 54°F / 12°C 73% 30.12 in
(1020 mb)
SE 5.8 mph
(SE 9 kph)
- 10SM
00:15
Clear
63°F / 17°C 54°F / 12°C 73% 30.15 in
(1021 mb)
SE 5.8 mph
(SE 9 kph)
- 10SM
00:03
Clear
64°F / 18°C 55°F / 13°C 73% 30.15 in
(1021 mb)
SE 5.8 mph
(SE 9 kph)
- 10SM
Time Weather Temperature Dewpoint Humidity Pressure Winds Precip Visibility


Weather for websites

WeatherForYou.com, LLC is not responsible for any damages or problems caused by this service. Current weather conditions are obtained from the closest station including government and personal stations which may have varying degrees of accuracy. Weather forecasts are derived from the NOAA NDFD. Like all things, this site belongs to Jesus Christ... He just trusts me to maintain it. If you have any questions or comments email webmaster@weatherforyou.com

Copyright © 2014, WeatherForYou.com LLC. All rights reserved.